Regional Weather Roundup
Issued by NWS State College, PA

Current Version | Previous Version | Text Only | Print | Product List | Glossary On
Versions: 1 2 3 4 5 6 7 8 9 10 11 12 13 14 15 16 17 18 19 20 21 22 23 24 25 26 27 28 29 30 31 32 33 34 35 36 37 38 39 40 41 42 43 44 45 46 47 48 49 50
000
ASUS41 KCTP 231810
RWRCTP

REGIONAL WEATHER ROUNDUP
NATIONAL WEATHER SERVICE STATE COLLEGE PA
200 PM EDT TUE SEP 23 2014

Note: "fair" indicates few or no clouds below 12,000 feet with no
significant weather and/or obstructions to visibility.

* = STATION THAT DOES NOT REPORT PRECIPITATION /E.G. RAIN...SNOW...ETC/
    THUNDER OR FOG.

PAZ002>004-007>009-013>016-020>023-029>032-231900-
WESTERN PENNSYLVANIA

CITY           SKY/WX    TMP DP  RH WIND       PRES   REMARKS
ERIE           SUNNY     65  50  58 NW10      30.35F
MEADVILLE      SUNNY     64  46  52 VRB5      30.36F
FRANKLIN*      SUNNY     63  46  55 SE3       30.38S
NEW CASTLE       N/A     65  48  53 CALM      30.38F
BEAVER COUNTY  SUNNY     64  46  52 CALM      30.37F
BUTLER*        SUNNY     63  45  51 SW6       30.39F
PITTSBURGH INT MOSUNNY   65  43  44 E7        30.37F
PITTSBURGH     SUNNY     64  40  41 SE5       30.36F
INDIANA*       SUNNY     63  45  51 VRB5      30.41S
LATROBE        SUNNY     64  43  45 N6        30.37F
WASHINGTON CO* SUNNY     64  43  45 S3        30.39S
$$

PAZ004>006-010>012-017>019-024>028-033>037-041-042-045-046-049>053-231900-
CENTRAL PENNSYLVANIA

CITY           SKY/WX    TMP DP  RH WIND       PRES   REMARKS
BRADFORD       SUNNY     64  45  49 VRB3      30.35F
DUBOIS         SUNNY     63  46  54 CALM      30.36S
CLEARFIELD     SUNNY     64  48  56 VRB5      30.36F
JOHNSTOWN      SUNNY     62  45  53 CALM      30.36F
ALTOONA        SUNNY     64  44  48 VRB5      30.37F
STATE COLLEGE  MOSUNNY   63  46  55 CALM      30.36F
WILLIAMSPORT   SUNNY     67  46  47 W6        30.34S
SELINSGROVE    SUNNY     68  47  46 VRB3      30.35F
FT INDIANTOWN  SUNNY     69  46  44 VRB5      30.34F
CAPITAL CITY   SUNNY     67  44  43 NW5       30.35F
HARRISBURG     MOSUNNY   69  46  43 W3        30.34F
YORK           SUNNY     68  41  37 CALM      30.34F
$$

PAZ038>040-043-044-047-048-054-055-060>062-067>071-231900-
EASTERN PENNSYLVANIA

CITY           SKY/WX    TMP DP  RH WIND       PRES   REMARKS
SCRANTON       SUNNY     66  44  45 W6        30.34S
MOUNT POCONO   SUNNY     64  40  41 NW5       30.34S
ALLENTOWN      SUNNY     68  43  40 CALM      30.34S
QUAKERTOWN*    CLEAR     68  43  40 W3        30.34F
READING        SUNNY     68  42  38 VRB5      30.33F
LANCASTER      SUNNY     68  41  37 CALM      30.34F
COATESVILLE    CLEAR     64  43  45 CALM      30.34F
POTTSTOWN      SUNNY     68  43  40 SW6       30.34F
BLUE BELL      SUNNY     70  43  37 NE3       30.32F
DOYLESTOWN     SUNNY     66  42  41 S3        30.33F
WILLOW GROVE   NOT AVBL
NORTH PHILA    SUNNY     68  38  33 SE3       30.35F
PHILADELPHIA   PTSUNNY   69  42  37 VRB3      30.34F
$$


USA.gov is the U.S. government's official web portal to all federal, state and local government web resources and services.